Date,TemperatureHighF,TemperatureAvgF,TemperatureLowF,DewpointHighF,DewpointAvgF,DewpointLowF,HumidityHigh,HumidityAvg,HumidityLow,PressureMaxIn,PressureMinIn,WindSpeedMaxMPH,WindSpeedAvgMPH,GustSpeedMaxMPH,PrecipitationSumIn
2013-1-1,38.1,26.4,15.6,20.7,14.8,11.4,92,63,40,30.40,30.13,7,1,11,0.01
2013-1-2,36.4,23.2,9.0,13.1,9.4,4.9,85,58,29,30.46,30.31,3,0,6,0.00
2013-1-3,37.4,24.5,14.3,14.5,10.0,5.6,76,55,35,30.53,30.40,5,1,7,0.00
2013-1-4,35.2,20.9,8.6,10.4,5.4,1.7,74,53,30,30.55,30.36,3,0,7,0.00
2013-1-5,41.9,24.2,8.7,12.6,7.0,3.1,81,51,23,30.61,30.46,3,0,5,0.00
2013-1-6,43.3,30.5,11.1,12.1,9.2,3.8,72,42,25,30.59,30.27,4,0,6,0.00
2013-1-7,49.5,35.5,24.7,17.7,14.2,10.4,67,43,26,30.28,29.99,4,0,6,0.00
2013-1-8,50.4,33.0,17.6,18.7,14.3,10.4,77,50,21,30.33,30.01,7,2,11,0.00
2013-1-9,53.4,33.3,18.3,16.9,14.1,10.5,78,49,23,30.55,30.23,3,0,6,0.00
2013-1-10,47.1,35.6,24.2,18.5,14.8,11.4,60,43,29,30.22,29.79,3,0,5,0.00
2013-1-11,40.0,30.9,17.5,24.8,5.8,-8.2,76,38,17,30.00,29.66,10,2,20,0.00
2013-1-12,33.3,19.7,5.8,1.4,-3.1,-10.0,67,39,19,30.24,29.99,7,1,11,0.00
2013-1-13,32.0,17.7,4.6,5.2,-0.6,-6.3,66,46,27,30.34,30.17,4,0,6,0.00
2013-1-14,29.0,20.0,10.6,22.2,11.5,-0.9,83,70,51,30.31,30.13,5,0,7,0.01
2013-1-15,26.7,15.2,3.4,6.1,2.6,-2.5,82,59,37,30.66,30.30,6,1,10,0.00
2013-1-16,40.5,26.6,7.0,15.9,10.7,1.4,78,52,35,30.74,30.55,3,0,5,0.02
2013-1-17,47.2,24.6,11.9,18.1,13.0,6.8,82,63,29,30.73,30.53,3,0,5,0.00
2013-1-18,52.0,32.1,16.9,20.8,17.0,11.5,81,58,28,30.55,30.33,2,0,4,0.00
2013-1-19,54.4,35.1,19.7,22.0,18.0,13.7,79,53,23,30.48,30.33,3,0,5,0.00
2013-1-20,53.0,34.9,18.0,18.7,15.2,9.3,81,49,19,30.43,30.24,3,0,7,0.00
2013-1-21,54.7,41.2,29.4,19.2,15.3,11.6,61,37,21,30.34,30.24,4,0,6,0.00
2013-1-22,57.8,36.7,18.4,19.1,15.2,9.6,83,46,18,30.41,30.26,4,0,8,0.00
2013-1-23,58.0,35.9,18.3,22.4,13.2,10.5,75,44,16,30.48,30.31,2,0,7,0.00
2013-1-24,63.2,42.0,20.0,35.7,19.3,10.6,75,46,17,30.41,30.20,5,0,11,0.00
2013-1-25,58.1,45.6,33.6,40.0,33.9,27.9,82,65,48,30.26,30.08,1,0,4,0.00
2013-1-26,54.4,45.6,39.5,49.7,40.0,33.3,94,81,60,30.11,29.80,4,0,7,0.16
2013-1-27,60.8,48.4,37.7,42.4,38.5,34.2,93,71,38,29.93,29.79,4,1,10,0.01
2013-1-28,56.2,43.8,32.3,40.4,33.1,19.9,93,68,42,29.83,29.63,10,2,18,0.00
2013-1-29,37.9,33.4,28.6,22.9,15.6,4.6,69,49,27,30.04,29.67,17,6,31,0.00
2013-1-30,42.6,31.9,20.0,18.3,15.0,9.3,74,52,29,30.32,30.04,10,4,16,0.01
2013-1-31,53.0,35.4,18.0,26.3,19.9,14.4,92,58,25,30.43,30.28,7,1,12,0.00
2013-2-1,56.0,37.6,19.0,25.5,20.4,15.7,90,55,23,30.35,30.19,6,1,10,0.00
2013-2-2,57.3,40.1,23.0,25.2,21.1,17.0,80,50,23,30.42,30.28,2,0,5,0.00
2013-2-3,52.8,40.9,25.5,30.5,22.3,17.2,80,50,25,30.33,30.00,6,0,8,0.00
2013-2-4,57.7,45.2,31.9,31.2,25.9,19.8,81,49,23,30.08,29.93,6,2,10,0.00
2013-2-5,59.2,41.3,26.5,26.3,20.2,14.8,80,47,18,30.10,29.93,4,0,8,0.00
2013-2-6,62.6,46.2,27.2,29.0,22.7,16.8,68,42,26,30.00,29.83,5,1,10,0.00
2013-2-7,56.7,41.3,27.9,28.2,21.2,12.4,80,48,19,30.12,29.97,2,0,7,0.00
2013-2-8,60.0,43.6,28.8,25.4,21.9,16.9,74,45,25,30.11,29.71,7,1,12,0.00
2013-2-9,51.2,35.5,22.1,24.5,17.2,6.3,81,51,21,29.87,29.58,10,2,21,0.00
2013-2-10,45.1,33.0,20.5,23.0,15.4,10.4,78,52,26,30.03,29.87,4,1,10,0.00
2013-2-11,48.4,33.2,19.1,23.7,17.2,5.0,85,57,18,30.10,29.95,6,1,11,0.00
2013-2-12,40.2,31.4,25.8,22.7,12.9,7.1,70,48,25,30.25,30.00,8,2,14,0.00
2013-2-13,49.8,34.8,17.3,16.5,13.0,8.3,74,43,25,30.28,30.10,9,3,14,0.00
2013-2-14,53.5,44.5,31.9,21.9,18.7,15.8,54,37,23,30.24,30.07,11,4,19,0.00
2013-2-15,53.1,35.7,22.1,22.8,15.6,4.9,77,49,17,30.38,30.24,11,2,17,0.00
2013-2-16,58.2,43.7,20.5,14.4,9.0,0.5,67,27,10,30.48,30.17,4,0,7,0.00
2013-2-17,60.0,40.9,19.9,11.7,6.7,2.9,58,28,10,30.18,29.71,4,1,8,0.00
2013-2-18,53.4,41.2,27.9,18.5,-0.8,-21.5,54,21,4,30.07,29.80,9,2,13,0.00
2013-2-19,60.8,41.4,18.9,35.5,9.7,-5.5,66,31,11,30.10,29.72,9,3,13,0.00
2013-2-20,53.9,43.6,35.0,35.9,29.4,17.0,82,60,25,29.73,29.39,9,2,12,0.00
2013-2-21,49.6,38.1,29.9,28.9,23.6,16.8,89,60,27,29.90,29.49,7,1,15,0.01
2013-2-22,45.0,34.5,24.3,24.8,20.1,10.7,78,57,27,30.10,29.89,10,1,14,0.00
2013-2-23,49.4,33.5,15.7,15.6,12.3,9.5,79,46,22,30.16,29.76,4,1,10,0.00
2013-2-24,43.9,36.9,30.0,25.4,13.0,4.2,82,40,23,29.91,29.65,14,7,23,0.00
2013-2-25,50.3,37.3,25.9,25.4,10.9,0.8,82,38,14,30.14,29.91,9,3,15,0.00
2013-2-26,50.0,33.8,16.8,16.5,5.3,-9.5,66,34,11,30.15,29.86,14,4,25,0.00
2013-2-27,46.0,32.4,16.5,11.2,5.4,-2.1,64,34,16,30.36,30.16,3,0,6,0.00
2013-2-28,55.1,36.5,18.4,10.1,4.3,-4.5,55,28,9,30.43,30.26,9,1,10,0.00
2013-3-1,60.9,46.2,30.6,22.7,14.8,6.7,43,29,18,30.40,30.20,7,3,14,0.00
2013-3-2,68.5,52.8,36.1,25.5,21.7,18.8,61,32,16,30.37,30.11,5,1,8,0.00
2013-3-3,70.0,49.7,26.9,24.0,17.0,-1.4,74,35,6,30.12,29.78,9,2,14,0.00
2013-3-4,64.9,53.8,39.8,24.0,21.1,16.8,44,29,16,29.98,29.63,12,3,21,0.00
2013-3-5,61.4,45.3,31.1,23.9,18.3,8.7,67,39,13,30.24,29.99,6,1,9,0.00
2013-3-6,66.7,57.0,38.8,28.3,24.3,18.5,52,29,19,30.08,29.81,5,1,8,0.00
2013-3-7,70.6,52.9,33.2,27.2,19.3,14.5,55,30,13,29.99,29.76,3,0,6,0.00
2013-3-8,63.5,47.0,34.4,44.0,27.4,14.8,84,51,19,29.84,29.61,6,1,14,0.07
2013-3-9,47.6,40.4,32.4,35.3,25.7,18.0,80,57,32,29.96,29.71,9,2,12,0.00
2013-3-10,54.8,39.7,26.8,30.3,23.4,14.3,88,57,24,30.16,29.95,8,2,14,0.00
2013-3-11,64.3,45.4,26.6,21.9,17.7,8.7,71,39,12,30.21,29.96,7,2,13,0.00
2013-3-12,68.8,51.9,31.2,27.7,23.0,19.8,70,36,17,30.15,29.99,7,1,10,0.00
2013-3-13,71.4,58.6,40.1,27.9,22.3,18.1,53,27,15,30.20,30.08,5,1,7,0.00
2013-3-14,76.0,56.0,37.8,28.6,20.8,13.9,52,29,10,30.23,30.01,4,0,7,0.00
2013-3-15,79.2,57.2,37.0,30.0,19.1,8.4,62,27,7,30.08,29.78,2,0,5,0.00
2013-3-16,74.5,57.4,37.8,34.7,24.7,16.3,60,32,12,29.79,29.57,11,2,14,0.00
2013-3-17,71.3,61.6,49.8,38.3,25.3,-5.0,60,32,5,29.72,29.52,11,4,19,0.00
2013-3-18,69.6,59.3,42.8,14.1,8.4,2.4,30,14,7,29.89,29.75,9,3,18,0.00
2013-3-19,65.6,49.4,36.3,30.9,15.5,7.2,55,28,12,30.11,29.89,8,1,13,0.00
2013-3-20,64.9,49.6,28.9,28.4,20.4,15.5,68,34,18,30.19,29.78,3,1,7,0.00
2013-3-21,73.5,58.9,44.8,33.9,20.8,-2.3,56,28,5,29.77,29.43,13,4,20,0.00
2013-3-22,68.3,56.8,37.7,28.6,15.3,6.0,38,21,9,29.68,29.48,6,2,16,0.00
2013-3-23,52.0,41.0,28.3,28.0,3.6,-15.2,61,25,8,30.07,29.58,16,5,28,0.00
2013-3-24,56.2,39.6,21.9,10.7,-2.6,-12.2,40,18,9,30.18,29.92,9,2,18,0.01
2013-3-25,58.1,41.4,26.2,15.7,9.0,-0.4,47,28,15,30.22,30.03,8,1,19,0.00
2013-3-26,66.5,49.3,29.2,18.6,12.3,7.2,42,24,13,30.18,29.86,5,2,10,0.00
2013-3-27,74.3,56.9,38.7,22.0,15.0,8.4,45,22,8,29.97,29.79,4,1,8,0.00
2013-3-28,74.6,60.3,42.0,28.9,18.6,9.9,48,22,10,29.95,29.80,7,1,13,0.00
2013-3-29,76.0,66.0,49.7,28.6,21.0,14.8,40,19,10,30.00,29.83,5,1,12,0.00
2013-3-30,76.4,58.2,36.4,28.8,23.1,16.7,64,30,11,30.02,29.80,7,1,12,0.00
2013-3-31,74.8,59.2,44.4,35.6,30.0,26.9,58,35,18,29.92,29.72,2,0,8,0.00
2013-4-1,76.9,60.8,40.3,34.6,21.0,5.5,63,28,7,29.89,29.63,4,0,11,0.00
2013-4-2,70.6,56.6,41.7,31.0,20.1,-0.8,46,26,6,29.82,29.60,13,2,15,0.00
2013-4-3,69.0,53.4,39.4,33.8,27.3,19.9,66,40,16,29.99,29.82,7,1,15,0.00
2013-4-4,74.0,55.4,35.4,31.4,23.3,12.7,69,35,10,30.12,29.90,4,0,6,0.00
2013-4-5,78.8,62.6,44.7,26.7,18.1,8.0,48,21,7,29.94,29.59,6,1,10,0.00
2013-4-6,77.4,63.3,44.5,31.0,23.4,16.6,54,24,11,29.77,29.56,5,1,10,0.00
2013-4-7,77.9,65.4,46.1,31.5,22.2,14.9,53,22,10,29.67,29.47,7,2,14,0.00
2013-4-8,78.9,64.2,45.9,30.1,23.7,14.9,48,23,9,29.51,29.08,10,3,16,0.00
2013-4-9,55.7,48.3,42.2,37.3,32.8,27.6,82,56,37,29.74,29.14,8,2,12,0.01
2013-4-10,50.6,42.7,32.8,36.2,27.3,20.6,86,57,34,29.93,29.74,8,2,16,0.00
2013-4-11,69.4,54.5,29.5,32.7,26.6,18.5,67,37,22,29.95,29.73,10,3,18,0.00
2013-4-12,71.8,57.1,42.4,35.7,30.8,24.6,73,40,18,29.79,29.63,5,0,9,0.00
2013-4-13,77.1,59.4,38.4,36.5,23.6,11.7,62,30,10,29.76,29.45,7,1,13,0.00
2013-4-14,79.7,66.6,51.6,28.7,24.0,17.6,35,21,10,29.49,29.31,10,2,19,0.00
2013-4-15,83.9,64.6,41.5,30.0,22.2,11.1,59,24,7,29.52,29.30,9,2,16,0.00
2013-4-16,81.9,66.0,48.8,29.0,18.3,4.2,34,19,5,29.57,29.34,7,2,17,0.00
2013-4-17,62.6,53.9,39.2,29.5,21.9,11.5,43,29,14,29.82,29.40,10,3,16,0.00
2013-4-18,53.3,42.8,30.9,18.6,7.4,-0.1,53,26,12,30.19,29.82,11,5,20,0.00
2013-4-19,66.0,45.6,25.6,17.7,8.8,1.3,51,25,8,30.31,29.92,3,0,11,0.00
2013-4-20,72.6,55.7,38.6,24.1,15.8,5.7,46,23,10,29.94,29.70,11,2,18,0.00
2013-4-21,77.3,57.6,34.5,27.3,20.0,3.4,65,28,6,30.00,29.79,7,1,11,0.00
2013-4-22,84.9,63.7,36.5,28.8,19.7,7.3,69,26,6,29.86,29.54,8,1,12,0.00
2013-4-23,72.8,58.7,40.9,32.5,18.3,-12.8,53,24,5,29.92,29.57,12,2,15,0.00
2013-4-24,69.6,49.5,30.1,33.4,20.8,14.3,61,36,13,30.11,29.92,3,0,6,0.00
2013-4-25,76.6,61.6,49.3,38.4,26.8,15.7,50,28,12,29.98,29.60,7,1,16,0.00
2013-4-26,78.5,61.5,42.0,34.1,23.3,0.2,68,30,5,29.99,29.81,7,1,12,0.00
2013-4-27,79.8,60.7,40.5,33.1,18.7,-6.4,65,28,4,30.06,29.83,3,0,12,0.00
2013-4-28,83.4,61.5,38.2,28.1,15.6,-2.0,53,22,4,29.93,29.66,3,0,9,0.00
2013-4-29,88.4,65.9,39.7,30.0,21.6,14.2,66,24,7,29.76,29.47,4,1,7,0.00
2013-4-30,88.9,69.1,45.6,36.7,21.6,8.3,58,22,6,29.59,29.42,6,1,11,0.00
2013-5-1,85.6,68.9,49.3,29.9,17.3,-6.6,43,17,6,29.91,29.51,9,2,18,0.00
2013-5-2,62.7,51.1,37.9,29.4,21.0,12.0,60,34,14,30.28,29.93,3,0,6,0.00
2013-5-3,67.8,52.2,34.9,22.4,16.8,12.4,44,26,12,30.30,29.87,6,1,10,0.00
2013-5-4,78.5,58.1,41.5,22.4,15.3,9.3,44,22,8,29.90,29.67,7,1,13,0.00
2013-5-5,74.9,63.6,52.1,34.9,24.0,12.5,34,22,14,29.90,29.73,8,1,14,0.00
2013-5-6,73.2,62.0,54.1,43.1,30.2,19.3,51,31,20,29.79,29.70,4,1,13,0.00
2013-5-7,76.8,69.4,54.9,38.8,33.1,27.6,49,27,17,29.83,29.63,6,1,21,0.00
2013-5-8,73.1,61.1,43.6,40.8,29.5,18.5,78,36,14,29.82,29.70,6,1,9,0.00
2013-5-9,74.8,60.9,43.6,35.3,29.2,22.2,60,32,17,29.91,29.75,8,0,14,0.00
2013-5-10,72.2,59.1,45.6,51.1,39.2,34.6,77,49,27,30.11,29.88,4,0,9,0.04
2013-5-11,74.3,59.1,48.3,45.4,40.1,31.6,79,53,23,30.15,30.06,4,0,11,0.00
2013-5-12,83.3,61.3,42.3,42.8,36.2,28.7,73,44,15,30.19,29.93,2,0,7,0.00
2013-5-13,85.3,65.2,45.7,41.5,35.8,28.9,74,39,14,30.08,29.84,2,0,5,0.00
2013-5-14,87.5,68.3,47.3,45.9,34.0,26.2,62,33,12,29.92,29.62,8,0,14,0.00
2013-5-15,91.9,75.7,60.0,49.7,38.8,29.3,63,29,11,29.73,29.50,8,1,20,0.00
2013-5-16,89.3,70.4,47.8,39.0,27.0,7.8,63,26,6,29.75,29.52,4,0,12,0.00
2013-5-17,87.4,71.3,47.8,40.1,26.6,11.5,53,23,8,29.74,29.52,4,1,14,0.00
2013-5-18,79.9,70.3,52.0,37.3,24.3,14.2,46,19,11,29.70,29.48,8,2,12,0.00
2013-5-19,78.9,66.2,54.8,41.9,32.3,19.6,57,30,13,29.68,29.57,10,3,20,0.00
2013-5-20,77.6,63.8,46.3,39.9,31.8,11.4,73,34,8,29.76,29.59,12,2,20,0.00
2013-5-21,83.1,63.7,44.7,39.3,33.2,22.1,69,37,11,29.84,29.61,7,1,10,0.00
2013-5-22,87.3,68.5,47.6,39.0,30.7,18.3,64,31,8,29.72,29.50,3,0,10,0.00
2013-5-23,92.1,71.9,48.9,40.2,29.1,19.3,56,25,8,29.72,29.50,3,0,9,0.00
2013-5-24,88.8,73.4,54.7,49.7,37.3,19.3,74,33,9,29.78,29.58,4,0,6,0.00
2013-5-25,92.7,72.6,48.6,43.3,28.9,8.8,59,25,5,29.81,29.53,5,0,12,0.00
2013-5-26,88.8,72.2,49.6,40.2,22.9,2.2,58,21,4,29.76,29.55,3,0,7,0.00
2013-5-27,87.1,68.5,50.1,41.3,25.1,9.7,56,24,6,29.73,29.53,9,1,13,0.00
2013-5-28,86.4,69.4,44.7,36.9,23.9,10.1,67,22,6,29.61,29.32,7,0,16,0.00
2013-5-29,85.2,72.7,57.0,42.4,25.6,3.8,53,21,5,29.46,29.30,12,3,20,0.00
2013-5-30,90.8,69.1,48.1,36.8,27.9,16.8,50,25,8,29.61,29.45,9,2,16,0.00
2013-5-31,89.9,80.7,61.4,46.8,25.1,5.7,52,15,7,29.69,29.52,10,4,22,0.00
2013-6-1,87.1,69.9,47.9,42.1,21.6,3.0,48,19,5,29.81,29.68,4,0,9,0.00
2013-6-2,86.9,73.8,60.9,48.9,39.0,30.5,50,30,19,29.82,29.53,8,1,14,0.00
2013-6-3,92.7,76.6,57.0,53.3,38.8,10.4,72,34,6,29.70,29.45,7,1,16,0.00
2013-6-4,93.5,77.0,51.2,41.6,28.5,13.4,59,21,6,29.69,29.49,6,1,18,0.00
2013-6-5,91.2,76.1,57.2,50.3,39.4,24.1,61,30,10,29.65,29.48,3,0,9,0.00
2013-6-6,90.4,73.1,53.7,49.5,41.6,27.1,72,36,12,29.74,29.56,6,0,13,0.00
2013-6-7,91.3,74.9,57.3,54.3,45.3,30.9,76,39,13,29.73,29.45,4,0,11,0.00
2013-6-8,98.2,78.7,58.3,52.5,38.9,23.1,65,32,8,29.62,29.41,9,2,16,0.00
2013-6-9,96.0,78.4,62.3,53.3,45.8,34.5,66,34,13,29.66,29.51,5,0,8,0.00
2013-6-10,101.3,83.1,60.8,55.8,43.1,26.0,70,31,9,29.69,29.48,3,0,6,0.00
2013-6-11,102.3,83.8,63.3,48.5,32.6,13.1,51,20,4,29.68,29.48,5,1,14,0.00
2013-6-12,102.1,81.4,56.1,46.2,36.5,21.5,57,24,6,29.76,29.59,3,0,5,0.00
2013-6-13,100.0,80.2,58.8,55.8,44.1,35.2,58,31,11,29.74,29.55,6,0,8,0.02
2013-6-14,93.6,78.0,63.2,59.2,50.8,43.5,67,41,21,29.67,29.49,4,0,11,0.00
2013-6-15,96.5,77.9,60.4,56.3,45.9,32.2,71,38,12,29.77,29.58,14,1,28,0.00
2013-6-16,95.5,79.0,61.8,52.0,44.3,36.1,62,32,14,29.77,29.61,13,1,36,0.00
2013-6-17,94.1,76.7,58.9,51.5,46.1,39.3,66,38,16,29.81,29.57,5,0,14,0.00
2013-6-18,91.7,78.6,67.4,55.5,49.8,40.7,58,39,17,29.77,29.49,6,1,12,0.00
2013-6-19,99.9,79.5,56.1,51.0,33.7,7.4,67,27,4,29.64,29.40,2,0,9,0.00
2013-6-20,97.7,75.8,53.8,49.4,28.1,-7.1,60,24,3,29.68,29.46,2,0,8,0.00
2013-6-21,95.9,74.8,53.0,50.2,31.2,14.7,56,25,6,29.75,29.50,3,0,6,0.00
2013-6-22,96.0,75.6,52.3,46.0,28.5,10.3,62,24,5,29.70,29.50,7,1,12,0.00
2013-6-23,94.7,74.2,51.5,39.7,29.6,16.3,54,23,6,29.69,29.46,2,0,12,0.00
2013-6-24,96.8,77.8,56.6,49.8,26.3,4.1,54,20,4,29.67,29.50,5,1,10,0.00
2013-6-25,96.7,77.0,54.5,51.5,33.0,22.7,53,24,8,29.73,29.55,4,0,8,0.00
2013-6-26,100.7,78.9,55.9,45.3,38.8,28.0,67,29,8,29.80,29.61,3,0,5,0.00
2013-6-27,106.6,83.5,58.6,50.7,39.6,21.1,59,26,5,29.80,29.60,1,0,4,0.00
2013-6-28,99.2,84.8,72.9,58.2,47.3,35.0,53,28,15,29.81,29.64,7,1,13,0.00
2013-6-29,100.0,80.9,65.7,53.3,48.6,39.5,61,35,14,29.79,29.58,4,0,10,0.00
2013-6-30,99.3,79.5,63.3,54.5,49.5,44.3,63,38,16,29.81,29.53,7,0,15,0.00
2013-7-1,90.5,74.6,60.2,58.5,53.2,46.7,85,51,24,29.88,29.70,4,0,10,0.03
2013-7-2,89.1,73.4,60.7,63.3,51.5,45.6,70,48,23,29.93,29.67,3,0,11,0.01
2013-7-3,88.0,72.1,60.9,60.5,55.9,45.8,90,60,28,29.87,29.57,4,0,6,0.05
2013-7-4,92.5,77.3,59.8,59.4,54.2,47.3,85,49,22,29.70,29.52,6,0,8,0.01
2013-7-5,96.0,76.3,65.1,65.9,58.0,51.0,92,57,23,29.66,29.44,4,0,9,0.31
2013-7-6,91.5,76.1,64.9,64.5,59.5,51.5,92,61,27,29.72,29.51,8,0,10,0.03
2013-7-7,94.6,79.9,64.2,64.4,58.0,47.1,85,52,21,29.71,29.54,3,0,4,0.01
2013-7-8,96.3,80.0,69.0,63.6,57.9,52.2,82,49,24,29.82,29.62,10,0,15,0.01
2013-7-9,97.2,78.0,64.9,65.8,61.1,54.0,91,61,26,29.85,29.66,3,0,5,0.01
2013-7-10,97.0,81.9,66.8,62.0,57.0,49.4,77,46,21,29.80,29.60,4,0,9,0.00
2013-7-11,90.9,82.1,71.6,62.2,57.7,51.6,65,45,27,29.76,29.59,1,0,6,0.00
2013-7-12,95.0,78.2,64.3,63.6,59.4,54.0,86,56,30,29.73,29.59,2,0,11,0.00
2013-7-13,95.8,80.7,66.6,63.4,57.1,49.4,79,48,23,29.75,29.59,7,0,9,0.00
2013-7-14,98.2,81.7,65.9,61.5,56.8,49.5,77,47,20,29.73,29.47,7,0,10,0.00
2013-7-15,76.9,71.5,66.8,62.3,56.1,51.9,65,58,54,29.87,29.75,1,0,5,0.00
2013-7-16,83.6,71.7,61.6,56.4,52.0,48.0,79,51,31,29.93,29.79,5,0,10,0.00
2013-7-17,81.1,70.6,59.3,58.5,54.6,50.3,91,60,36,30.02,29.88,2,0,7,0.01
2013-7-18,87.1,73.8,60.8,58.5,55.8,52.4,81,56,34,29.97,29.75,2,0,5,0.00
2013-7-19,90.5,72.6,65.3,66.1,61.0,56.7,90,69,36,29.83,29.65,4,0,5,0.17
2013-7-20,89.2,75.6,65.9,65.8,60.8,55.6,87,62,36,29.76,29.57,4,0,5,0.05
2013-7-21,91.7,77.1,65.8,63.8,58.3,49.3,83,56,26,29.71,29.56,2,0,8,0.00
2013-7-22,94.2,78.8,63.6,61.4,56.9,50.3,83,51,26,29.71,29.55,2,0,8,0.00
2013-7-23,97.3,80.6,64.1,60.3,54.8,46.2,79,45,21,29.69,29.54,2,0,5,0.00
2013-7-24,91.3,72.5,65.1,67.1,58.2,53.9,87,63,30,29.85,29.63,2,0,8,0.09
2013-7-25,86.1,74.4,63.7,64.8,61.3,57.8,89,66,44,29.89,29.72,2,0,8,0.00
2013-7-26,87.2,74.7,62.5,65.9,62.3,57.9,94,69,41,29.93,29.76,2,0,8,0.35
2013-7-27,83.7,76.5,71.0,64.2,60.8,57.6,73,59,42,29.92,29.72,1,0,7,0.01
2013-7-28,88.6,74.2,65.1,66.9,61.9,53.7,89,68,32,29.74,29.57,5,0,10,0.05
2013-7-29,91.6,78.3,63.2,64.3,56.2,46.7,91,52,23,29.80,29.68,6,1,9,0.01
2013-7-30,93.2,76.4,59.7,61.0,56.0,49.1,87,54,23,29.93,29.76,1,0,4,0.00
2013-7-31,96.4,77.9,63.2,62.9,55.5,47.8,79,50,21,29.93,29.73,1,0,3,0.00
2013-8-1,89.0,75.2,67.7,65.0,60.1,55.0,90,61,37,29.87,29.72,4,0,9,0.04
2013-8-2,90.9,74.8,63.5,65.2,61.7,53.2,94,68,33,29.83,29.64,6,0,11,0.15
2013-8-3,90.6,75.3,62.8,64.0,60.5,54.1,92,64,30,29.83,29.68,1,0,6,0.00
2013-8-4,94.1,77.5,65.5,64.8,60.8,52.6,86,60,29,29.83,29.64,7,0,8,0.07
2013-8-5,92.4,73.9,64.3,68.4,61.7,55.5,88,69,30,29.82,29.64,7,0,9,0.06
2013-8-6,91.4,74.8,65.0,61.0,57.9,54.1,77,58,29,29.77,29.64,7,0,12,0.00
2013-8-7,84.2,72.3,60.2,61.2,56.9,52.5,92,61,35,29.77,29.69,7,1,14,0.00
2013-8-8,88.1,74.6,61.3,60.0,53.2,44.0,86,52,23,29.77,29.67,7,2,17,0.00
2013-8-9,88.0,75.6,62.5,55.7,49.4,41.3,65,42,23,29.85,29.72,5,1,11,0.00
2013-8-10,86.2,72.2,61.9,58.7,54.0,45.4,81,55,32,30.00,29.80,9,1,12,0.09
2013-8-11,83.6,71.0,61.0,59.4,56.4,50.1,88,63,34,30.00,29.80,2,0,4,0.00
2013-8-12,85.0,71.4,64.5,64.0,59.2,55.0,81,67,38,29.93,29.77,1,0,6,0.01
2013-8-13,90.4,73.4,62.4,61.3,57.0,46.9,89,60,26,29.91,29.74,4,0,7,0.00
2013-8-14,89.7,72.1,58.9,61.5,55.8,46.1,92,60,24,29.89,29.73,5,0,7,0.00
2013-8-15,91.1,76.2,62.3,60.1,54.8,42.9,82,51,22,29.89,29.73,4,0,9,0.00
2013-8-16,95.9,76.7,57.5,58.0,51.6,39.8,85,47,15,29.89,29.72,1,0,4,0.00
2013-8-17,95.9,80.3,68.5,59.4,52.0,42.2,59,40,16,29.83,29.62,6,0,18,0.00
2013-8-18,94.1,79.2,66.5,59.4,53.7,46.6,69,44,20,29.80,29.64,2,0,7,0.00
2013-8-19,94.8,78.1,62.8,59.7,54.6,45.8,77,47,21,29.79,29.62,3,0,9,0.02
2013-8-20,91.2,75.1,60.9,61.3,57.8,52.4,89,59,27,29.81,29.63,3,0,8,0.00
2013-8-21,91.7,75.7,61.6,60.7,57.4,52.1,87,56,31,29.81,29.67,1,0,5,0.00
2013-8-22,91.8,76.1,61.5,58.4,53.9,46.7,78,49,25,29.85,29.65,1,0,1,0.00
2013-8-23,88.0,73.8,56.1,57.4,51.2,46.4,75,47,29,29.84,29.67,2,0,6,0.00
2013-8-24,87.1,73.7,64.5,63.2,58.1,52.7,91,61,34,29.85,29.69,4,0,7,0.07
2013-8-25,87.6,73.2,65.0,65.2,61.8,57.9,91,70,39,29.92,29.82,4,0,8,0.01
2013-8-26,88.3,74.6,61.7,62.9,59.0,54.5,90,62,34,29.95,29.76,3,0,6,0.00
2013-8-27,88.6,74.0,60.9,59.9,56.0,52.3,82,56,32,29.88,29.69,1,0,4,0.00
2013-8-28,89.3,73.7,58.6,59.9,54.9,51.4,84,54,29,29.86,29.74,2,0,5,0.00
2013-8-29,87.6,75.4,66.7,62.1,58.2,54.9,77,57,35,29.89,29.77,1,0,5,0.00
2013-8-30,92.6,75.9,63.3,64.4,58.4,53.5,85,58,29,29.89,29.68,1,0,2,0.00
2013-8-31,94.3,76.8,60.5,63.5,56.1,50.2,84,53,23,29.79,29.58,1,0,5,0.00
2013-9-1,95.4,79.5,63.7,61.1,54.3,47.3,74,44,23,29.80,29.59,8,1,15,0.00
2013-9-2,90.1,77.2,66.9,61.4,58.2,53.9,80,54,32,29.82,29.66,4,0,16,0.00
2013-9-3,92.2,77.5,65.2,61.2,57.2,49.3,80,53,27,29.84,29.67,5,0,11,0.00
2013-9-4,90.9,76.6,63.3,58.5,52.0,42.0,76,46,24,29.91,29.75,1,0,6,0.00
2013-9-5,90.8,73.4,57.5,56.8,46.8,42.1,64,42,19,29.94,29.79,1,0,5,0.00
2013-9-6,90.3,73.0,55.9,52.1,46.3,41.0,66,42,21,29.95,29.74,1,0,6,0.00
2013-9-7,90.1,72.6,58.6,60.3,53.5,48.0,72,53,28,29.87,29.69,1,0,4,0.00
2013-9-8,88.6,73.5,58.0,57.3,52.5,48.7,74,51,27,29.80,29.58,2,0,7,0.00
2013-9-9,87.5,73.3,59.5,60.7,54.5,48.0,83,55,29,29.69,29.52,2,0,5,0.08
2013-9-10,72.8,65.6,62.2,64.3,60.7,57.4,95,85,62,29.84,29.66,3,0,5,0.64
2013-9-11,80.2,69.3,62.3,65.2,60.7,54.4,96,76,44,29.89,29.76,3,0,7,0.00
2013-9-12,71.9,66.9,62.0,67.0,62.8,58.1,94,87,75,29.88,29.76,1,0,7,0.53
2013-9-13,72.5,64.4,60.3,63.5,61.0,58.7,96,89,66,29.85,29.73,2,0,6,0.65
2013-9-14,74.2,64.8,59.1,63.6,60.3,55.8,97,86,61,29.84,29.71,2,0,7,1.17
2013-9-15,76.2,64.8,57.0,61.1,57.7,52.4,96,80,48,29.90,29.79,1,0,3,0.21
2013-9-16,77.8,65.8,55.9,62.0,57.1,54.3,95,76,46,29.99,29.83,1,0,5,0.00
2013-9-17,79.5,68.2,58.1,63.5,58.6,53.5,94,74,43,29.90,29.67,1,0,4,0.00
2013-9-18,81.6,69.8,61.6,64.5,60.2,53.4,92,73,39,29.75,29.59,2,0,6,0.00
2013-9-19,82.0,68.6,57.8,63.2,57.8,50.5,95,71,35,29.75,29.62,1,0,5,0.06
2013-9-20,79.8,66.6,54.8,58.0,54.1,49.8,89,66,39,29.86,29.72,2,0,5,0.00
2013-9-21,78.3,66.7,55.1,61.1,55.3,51.4,94,69,40,29.86,29.66,2,0,5,0.00
2013-9-22,78.8,65.5,54.9,58.1,54.4,46.4,92,70,38,29.70,29.36,5,1,13,0.08
2013-9-23,73.4,60.2,45.4,45.9,39.5,33.3,86,51,25,29.92,29.58,8,2,17,0.00
2013-9-24,75.1,59.3,44.5,49.7,44.6,39.1,92,62,28,30.03,29.81,1,0,4,0.00
2013-9-25,81.1,63.2,46.5,50.6,46.6,42.4,89,59,29,29.84,29.51,1,0,6,0.00
2013-9-26,81.4,66.1,48.1,50.3,43.6,36.0,87,50,20,29.66,29.50,3,0,9,0.00
2013-9-27,72.5,57.9,45.4,53.9,44.6,36.1,81,62,42,29.91,29.56,7,1,12,0.00
2013-9-28,67.4,51.6,36.5,42.7,33.1,22.4,84,56,19,30.14,29.92,1,0,5,0.00
2013-9-29,75.0,55.0,38.2,43.3,35.2,25.6,85,54,16,30.17,29.92,2,0,5,0.00
2013-9-30,81.6,59.4,40.6,45.9,37.7,27.5,85,52,15,29.96,29.73,4,0,11,0.00
2013-10-1,86.5,60.2,39.1,48.4,36.5,14.9,89,51,7,29.89,29.73,2,0,6,0.00
2013-10-2,81.9,58.8,39.1,46.3,37.2,23.7,96,54,13,29.90,29.72,3,0,6,0.00
2013-10-3,79.7,60.1,40.0,43.5,37.6,25.5,91,51,14,29.81,29.56,6,1,13,0.00
2013-10-4,65.8,55.9,48.9,42.2,23.4,9.2,75,31,13,30.02,29.65,5,2,14,0.00
2013-10-5,64.7,50.9,36.8,29.6,22.0,15.8,61,35,16,30.20,30.02,5,1,8,0.00
2013-10-6,67.7,50.2,32.8,39.5,29.5,23.2,82,49,20,30.29,30.11,1,0,1,0.00
2013-10-7,72.3,52.1,35.6,39.8,31.9,26.7,78,52,20,30.24,29.97,1,0,4,0.00
2013-10-8,74.3,56.5,40.0,42.2,36.6,32.6,82,52,24,30.00,29.70,1,0,4,0.00
2013-10-9,74.3,58.8,42.5,42.5,37.2,30.4,75,48,21,29.80,29.65,1,0,5,0.00
2013-10-10,71.8,53.0,41.7,50.2,39.6,28.6,88,63,31,29.87,29.53,8,2,20,0.13
2013-10-11,62.8,51.0,34.8,38.8,34.6,31.0,89,56,33,30.02,29.87,4,1,9,0.00
2013-10-12,67.1,51.7,34.6,44.0,37.3,32.0,92,61,31,30.11,29.93,1,0,7,0.00
2013-10-13,75.8,59.7,41.2,47.8,42.6,38.4,92,58,27,30.05,29.75,3,0,6,0.00
2013-10-14,68.9,57.3,41.9,47.5,33.3,21.2,83,45,19,29.90,29.77,5,1,9,0.00
2013-10-15,66.1,51.1,33.5,37.3,31.9,27.5,83,52,28,30.01,29.82,6,1,9,0.00
2013-10-16,61.5,51.4,39.0,38.6,31.1,18.6,70,48,22,30.03,29.91,4,1,9,0.00
2013-10-17,62.9,45.7,30.3,33.8,26.3,20.1,84,51,20,30.13,29.89,3,0,6,0.00
2013-10-18,63.8,47.5,31.4,31.4,23.6,13.7,88,47,16,30.12,29.92,10,2,17,0.00
2013-10-19,63.3,47.5,31.9,31.6,27.2,16.5,83,51,18,30.17,29.97,2,0,7,0.00
2013-10-20,69.8,50.7,30.7,30.1,24.3,13.0,83,42,12,30.02,29.79,6,0,8,0.00
2013-10-21,62.3,49.0,35.6,38.1,32.0,25.0,86,55,29,30.12,29.90,1,0,4,0.00
2013-10-22,66.1,47.4,32.2,37.2,30.4,20.9,87,58,18,30.26,30.08,1,0,2,0.00
2013-10-23,67.9,49.5,32.9,38.1,31.3,24.5,78,53,26,30.20,30.00,1,0,5,0.00
2013-10-24,71.6,54.4,36.8,50.8,35.7,29.6,88,54,25,30.15,29.95,2,0,4,0.07
2013-10-25,64.7,54.8,45.6,49.5,46.4,40.7,90,75,48,30.13,29.94,10,1,12,0.06
2013-10-26,65.1,50.7,38.2,47.2,41.5,36.5,96,74,36,30.23,30.06,2,0,5,0.00
2013-10-27,66.1,50.3,36.9,43.1,39.3,35.0,95,70,35,30.15,29.82,1,0,6,0.00
2013-10-28,67.0,53.1,41.6,44.9,37.8,27.7,89,60,27,29.87,29.73,1,0,4,0.00
2013-10-29,68.8,56.6,40.8,36.5,31.1,27.8,73,41,23,29.90,29.66,5,1,9,0.00
2013-10-30,61.9,49.7,39.2,43.6,34.6,26.8,86,58,36,29.89,29.64,8,1,14,0.02
2013-10-31,56.0,44.5,31.7,32.6,28.6,24.1,88,58,29,30.08,29.89,9,2,15,0.00
2013-11-1,61.2,51.4,34.6,32.2,28.7,25.5,81,44,27,30.21,30.05,9,2,18,0.00
2013-11-2,61.8,45.3,30.7,32.1,29.5,26.4,92,58,27,30.30,30.01,2,0,10,0.00
2013-11-3,67.4,51.8,38.6,41.5,34.0,28.4,77,54,25,30.01,29.65,4,0,8,0.00
2013-11-4,65.3,51.9,34.9,44.1,37.2,31.3,89,61,33,29.85,29.65,3,0,7,0.00
2013-11-5,53.1,46.2,33.2,46.1,33.6,18.5,90,63,41,30.22,29.69,9,2,15,0.10
2013-11-6,54.7,39.5,25.9,24.2,19.3,12.8,80,49,21,30.46,30.22,6,1,11,0.00
2013-11-7,58.0,40.8,26.7,29.8,25.1,22.0,87,58,25,30.51,30.27,2,0,5,0.00
2013-11-8,60.6,41.1,27.3,32.3,27.1,23.2,92,62,27,30.29,30.04,1,0,6,0.00
2013-11-9,66.6,45.0,29.2,34.5,28.5,24.8,90,59,21,30.21,30.08,1,0,4,0.00
2013-11-10,66.4,47.5,32.0,34.7,28.7,23.8,78,53,20,30.29,30.13,1,0,2,0.00
2013-11-11,67.0,49.3,35.5,34.9,28.0,23.2,71,48,19,30.31,30.13,2,0,6,0.00
2013-11-12,57.4,44.9,31.2,36.8,31.6,24.9,84,61,40,30.51,30.30,6,0,11,0.00
2013-11-13,55.7,45.0,35.1,39.3,36.5,31.0,88,73,53,30.50,30.13,1,0,5,0.00
2013-11-14,59.4,43.7,32.7,41.6,34.3,28.0,93,72,41,30.14,29.92,1,0,4,0.00
2013-11-15,61.1,44.4,29.9,46.2,34.9,25.4,91,72,41,29.93,29.66,5,0,8,0.11
2013-11-16,60.8,50.0,41.2,44.8,38.2,30.4,92,67,37,29.76,29.53,4,0,11,0.00
2013-11-17,59.8,47.3,34.4,35.7,32.3,29.0,83,58,36,30.12,29.76,6,1,16,0.00
2013-11-18,56.2,40.7,31.4,34.4,31.2,27.7,88,71,40,30.24,30.10,0,0,1,0.00
2013-11-19,61.3,43.6,29.9,37.6,32.8,27.2,92,69,36,30.15,29.85,2,0,5,0.00
2013-11-20,49.9,42.8,36.0,44.0,38.6,31.4,94,85,61,29.92,29.84,1,0,3,0.23
2013-11-21,54.8,46.7,40.0,47.6,43.4,38.4,100,89,74,30.04,29.92,3,0,6,0.24
2013-11-22,45.4,38.3,35.4,43.5,32.1,28.0,93,79,70,30.36,30.02,7,3,11,0.08
2013-11-23,41.3,37.1,33.0,33.1,29.8,22.6,91,75,60,30.44,30.30,6,1,8,0.05
2013-11-24,32.7,31.1,28.4,25.7,24.2,22.0,84,75,66,30.36,30.19,2,0,5,0.08
2013-11-25,46.5,35.6,28.0,32.0,28.4,25.2,93,76,52,30.40,30.15,7,1,12,0.02
2013-11-26,47.5,34.7,25.3,32.1,28.1,23.3,92,78,52,30.51,30.39,2,0,3,0.01
2013-11-27,47.9,35.1,24.2,30.8,27.5,22.0,92,76,48,30.47,30.25,3,0,6,0.00
2013-11-28,48.4,35.6,28.1,29.1,26.4,22.6,92,72,42,30.36,30.23,2,0,6,0.00
2013-11-29,54.2,37.6,26.3,32.6,28.4,23.8,91,72,39,30.43,30.27,2,0,4,0.00
2013-11-30,56.5,40.3,28.2,35.4,31.2,25.9,92,72,44,30.38,30.19,2,0,5,0.01
2013-12-1,50.8,38.7,30.3,35.5,30.9,27.8,92,75,51,30.33,30.22,6,1,7,0.00
2013-12-2,52.3,38.5,29.6,31.7,28.2,25.3,86,68,42,30.25,29.89,5,1,8,0.00
2013-12-3,64.7,42.9,26.1,32.2,23.8,12.7,99,56,13,29.89,29.59,5,1,9,0.00
2013-12-4,61.6,46.1,32.0,34.8,26.1,22.3,72,49,22,29.71,29.50,9,2,11,0.00
2013-12-5,33.8,26.2,16.9,31.5,22.1,11.6,92,84,77,30.10,29.80,4,1,15,0.05
2013-12-6,35.7,22.5,12.0,21.8,14.8,8.4,87,74,44,30.35,30.09,2,0,5,0.02
2013-12-7,31.3,26.2,18.4,26.6,20.3,12.3,89,78,72,30.30,29.96,3,1,6,0.00
2013-12-8,37.4,29.8,25.2,26.9,18.2,11.6,89,63,45,30.09,29.89,9,2,17,0.01
2013-12-9,32.6,25.7,16.3,17.6,9.9,2.4,73,52,30,30.62,30.08,11,3,24,0.00
2013-12-10,36.4,21.5,11.4,12.5,6.5,1.9,76,54,26,30.67,30.44,3,0,5,0.00
2013-12-11,43.5,28.5,13.4,18.6,14.4,9.0,84,59,29,30.67,30.50,3,0,6,0.00
2013-12-12,43.2,31.6,19.6,23.8,17.9,12.8,80,58,36,30.66,30.22,4,0,6,0.00
2013-12-13,47.8,37.1,31.3,32.0,26.0,21.0,79,65,53,30.22,29.98,9,1,12,0.00
2013-12-14,46.1,35.6,23.6,23.4,19.5,17.0,80,54,32,30.47,30.16,7,1,8,0.00
2013-12-15,50.0,34.0,21.2,22.3,19.6,16.8,92,59,30,30.51,30.37,4,1,11,0.00
2013-12-16,57.5,38.9,22.2,25.2,21.9,18.4,89,55,25,30.49,30.32,6,1,7,0.00
2013-12-17,57.8,38.8,24.3,26.4,23.0,19.4,83,57,26,30.47,30.30,2,0,4,0.00
2013-12-18,53.6,36.5,24.1,27.9,23.6,20.2,87,62,31,30.34,29.97,1,0,3,0.00
2013-12-19,56.2,36.2,25.6,27.6,24.4,21.3,85,65,30,29.97,29.69,3,0,5,0.00
2013-12-20,53.9,39.2,28.2,31.9,25.6,21.3,78,61,29,29.83,29.62,6,0,11,0.00
2013-12-21,45.0,38.8,33.5,34.0,29.2,25.1,92,70,49,29.84,29.53,12,2,24,0.00
2013-12-22,44.3,34.9,24.1,25.8,19.9,13.9,83,56,29,30.36,29.83,8,1,15,0.00
2013-12-23,50.8,34.4,21.9,24.2,19.7,16.3,82,58,30,30.55,30.34,5,1,8,0.00
2013-12-24,51.1,35.6,20.1,25.3,21.8,17.0,91,61,32,30.49,30.23,6,1,10,0.00
2013-12-25,49.5,34.1,21.6,24.2,18.9,11.5,91,57,24,30.48,30.33,9,1,17,0.00
2013-12-26,51.9,32.0,17.8,21.2,16.1,-99.9,85,57,26,30.52,30.33,8,1,12,0.00
2013-12-27,53.2,34.5,20.8,18.6,16.2,14.0,78,52,21,30.48,30.30,8,1,15,0.00
2013-12-28,48.9,32.4,18.6,23.3,17.9,13.5,87,59,29,30.31,29.99,6,0,9,0.00
2013-12-29,50.9,36.7,24.7,25.0,22.0,-99.9,88,58,35,30.24,30.04,8,1,11,0.00
2013-12-30,53.2,35.3,21.5,21.3,15.2,6.5,90,50,18,30.42,30.23,7,1,13,0.00
2013-12-31,51.9,33.4,18.3,19.7,15.4,-99.9,87,54,25,30.43,30.22,6,1,8,0.00
2014-1-1,55.9,37.4,20.8,23.8,18.6,15.3,83,52,21,30.36,30.15,14,2,26,0.00
2014-1-2,51.4,33.6,20.1,24.8,17.5,13.7,86,56,22,30.43,30.28,4,0,12,0.00